This demonstration page uses our WeatherBlox Daily Observations layout. Learn more.

Left ArrowRight Arrow

Hourly Observations for March 19, 2022

Temp ( °F °C ) Dew Point ( °F °C ) Humidity (%) Winds ( mph kmh ) Pressure ( in mb ) Visibility ( mi km ) Precip ( " mm )
12:45 am 00:45 Cloudy with Thunderstorms 59 15 53 11.7 81 81 VRB 3 6 29.65 1004 2 3 0.10 2.54
12:47 am 00:47 Cloudy with Strong Thunderstorms 57 14 54 12 88 88 VRB 3 6 29.64 1004 2 2 0.11 2.79
12:53 am 00:53 Cloudy with Thunderstorms 58 14.4 54 12.2 87 87 SW 3 6 29.64 1004 1 2 0.13 3.30
12:55 am 00:55 Cloudy with Thunderstorms 57 13.9 55 12.8 93 93 WSW 8 13 29.66 1004 2 3 0.00 0.00
1:02 am 01:02 Cloudy with Rain 57 13.9 55 12.8 93 93 W 9 15 29.67 1005 3 5 0.02 0.51
1:07 am 01:07 Cloudy with Heavy Rain 57 13.9 55 12.8 93 93 WSW 12 19 29.67 1005 2 3 0.10 2.54
1:14 am 01:14 Cloudy with Heavy Rain 57 13.9 55 12.8 93 93 WSW 6 9 29.67 1005 1 2 0.15 3.81
1:27 am 01:27 Cloudy with Rain 56 13.3 55 12.8 97 97 VRB 6 9 29.66 1004 2 3 0.23 5.84
1:36 am 01:36 Cloudy with Rain 56 13.3 55 12.8 97 97 VRB 3 6 29.66 1004 4 6 0.25 6.35
1:53 am 01:53 Cloudy with Light Rain 56 13.3 54 12.2 93 93 S 3 6 29.64 1004 10 16 0.27 6.86
2:53 am 02:53 Partly Cloudy 54 12.2 52 11.1 93 93 Calm 29.65 1004 10 16 0.00 0.00
3:33 am 03:33 Cloudy 55 12.8 53 11.7 93 93 VRB 5 7 29.66 1004 10 16 0.00 0.00
3:53 am 03:53 Cloudy 56 13.3 53 11.7 90 90 VRB 5 7 29.65 1004 10 16 0.00 0.00
4:07 am 04:07 Mostly Cloudy 56 13.3 53 11.7 90 90 VRB 3 6 29.65 1004 10 16 0.00 0.00
4:53 am 04:53 Cloudy 56 13.3 53 11.7 90 90 S 3 6 29.64 1004 10 16 0.00 0.00
5:23 am 05:23 Cloudy 56 13.3 52 11.1 87 87 VRB 7 11 29.64 1004 10 16 0.00 0.00
5:37 am 05:37 Cloudy 56 13.3 51 10.6 84 84 SW 9 15 29.65 1004 10 16 0.00 0.00
5:53 am 05:53 Cloudy 55 12.8 50 10 83 83 VRB 7 11 29.65 1004 10 16 0.00 0.00
6:53 am 06:53 Cloudy 53 11.7 49 9.4 86 86 SW 12 19 29.67 1005 10 16 0.00 0.00
7:53 am 07:53 Cloudy with Light Rain 52 11.1 49 9.4 89 89 SSW 10 17 29.70 1006 6 10 0.00 0.00
8:25 am 08:25 Cloudy with Light Rain 50 10 47 8.3 89 89 SW 12 19 29.72 1006 10 16 0.01 0.25
8:32 am 08:32 Cloudy 50 10 47 8.3 89 89 SW 12 19 29.72 1006 10 16 0.01 0.25
8:39 am 08:39 Cloudy 51 10.6 47 8.3 86 86 SW 9 15 29.73 1007 10 16 0.01 0.25
8:53 am 08:53 Cloudy 51 10.6 47 8.3 86 86 SW 9 15 29.72 1006 10 16 0.01 0.25
9:35 am 09:35 Cloudy 50 10 47 8.3 89 89 WSW 13 20 29.75 1007 9 14 0.01 0.25
9:53 am 09:53 Cloudy with Light Rain 49 9.4 47 8.3 93 93 WSW 14 22 29.75 1007 5 8 0.02 0.51
10:17 am 10:17 Cloudy with Light Rain 49 9.4 46 7.8 90 90 WSW 14 22 29.77 1008 10 16 0.00 0.00
10:44 am 10:44 Cloudy with Light Rain 49 9.4 44 6.7 83 83 WSW 17 28 29.79 1009 10 16 0.00 0.00
10:53 am 10:53 Cloudy with Light Rain 48 8.9 44 6.7 86 86 WSW 16 26 29.78 1009 9 14 0.00 0.00
11:18 am 11:18 Cloudy with Light Rain 49 9.4 44 6.7 83 83 WSW 12 19 29.81 1009 10 16 0.00 0.00
11:53 am 11:53 Cloudy 49 9.4 42 5.6 77 77 WSW 12 19 29.80 1009 10 16 0.01 0.25
12:16 pm 12:16 Cloudy 50 10 42 5.6 74 74 SW 14 22 29.82 1010 10 16 0.00 0.00
12:26 pm 12:26 Cloudy 51 10.6 43 6.1 74 74 WSW 10 17 29.82 1010 10 16 0.00 0.00
12:53 pm 12:53 Cloudy 50 10 42 5.6 74 74 SW 10 17 29.82 1010 10 16 0.00 0.00
1:05 pm 13:05 Cloudy 50 10 41 5 71 71 WSW 15 24 29.84 1010 10 16 0.00 0.00
1:13 pm 13:13 Cloudy 50 10 41 5 71 71 SW 10 17 29.84 1010 10 16 0.00 0.00
1:53 pm 13:53 Cloudy 49 9.4 41 5 74 74 WSW 17 28 29.84 1011 10 16 0.00 0.00
2:19 pm 14:19 Cloudy 49 9.4 40 4.4 71 71 SW 15 24 29.85 1011 10 16 0.00 0.00
2:26 pm 14:26 Cloudy 49 9.4 40 4.4 71 71 WSW 13 20 29.86 1011 10 16 0.00 0.00
2:53 pm 14:53 Cloudy 49 9.4 41 5 74 74 WSW 15 24 29.85 1011 10 16 0.00 0.00
3:53 pm 15:53 Cloudy 48 8.9 39 3.9 71 71 WSW 16 26 29.87 1012 10 16 0.00 0.00
4:53 pm 16:53 Cloudy 46 7.8 38 3.3 73 73 WSW 12 19 29.91 1013 10 16 0.00 0.00
5:28 pm 17:28 Cloudy 46 7.8 38 3.3 73 73 W 13 20 29.92 1013 10 16 0.00 0.00
5:40 pm 17:40 Cloudy 45 7.2 38 3.3 77 77 W 10 17 29.94 1014 10 16 0.00 0.00
5:53 pm 17:53 Cloudy 45 7.2 38 3.3 77 77 W 9 15 29.92 1013 10 16 0.00 0.00
6:53 pm 18:53 Cloudy 44 6.7 38 3.3 79 79 W 8 13 29.96 1014 10 16 0.00 0.00
7:53 pm 19:53 Cloudy 43 6.1 38 3.3 82 82 WSW 12 19 29.98 1015 10 16 0.00 0.00
8:53 pm 20:53 Cloudy with Light Rain 42 5.6 39 3.9 89 89 WSW 10 17 30.01 1016 10 16 0.01 0.25
9:12 pm 21:12 Cloudy with Light Rain 42 5.6 39 3.9 89 89 W 8 13 30.03 1017 6 10 0.01 0.25
9:29 pm 21:29 Cloudy with Light Rain 42 5.6 39 3.9 89 89 W 7 11 30.03 1017 10 16 0.01 0.25
9:42 pm 21:42 Cloudy with Light Rain 41 5 40 4.4 96 96 WSW 7 11 30.03 1017 8 13 0.01 0.25
9:53 pm 21:53 Cloudy with Light Rain 42 5.6 40 4.4 92 92 W 7 11 30.02 1017 9 14 0.01 0.25
10:53 pm 22:53 Cloudy with Light Rain 42 5.6 40 4.4 92 92 WSW 6 9 30.03 1017 10 16 0.01 0.25
11:53 pm 23:53 Cloudy with Light Rain 42 5.6 40 4.4 92 92 WSW 7 11 30.04 1017 10 16 0.00 0.00

Powered by AerisWeather